Palm Springs, CA

3:57 PM PDT on August 22, 2017 (GMT -0700)
Palm Springs International

Weather History for KPSP - June, 2012

Change the Weather History Date:

Thursday, June 14, 2012

  Actual Average Record
Temperature  
Mean Temperature 85 °F 86 °F  
Max Temperature 102 °F 101 °F 119 °F (1966)
Min Temperature 68 °F 71 °F 50 °F (1943)
Degree Days  
Heating Degree Days 0 0  
Month to date heating degree days 0 0  
Since 1 June heating degree days 0 0  
Since 1 July heating degree days 771 874  
Cooling Degree Days 20 21  
Month to date cooling degree days 310 273  
Year to date cooling degree days 1249 1032  
Since 1 June cooling degree days 310 273  
Growing Degree Days 34 (Base 50)    
Moisture  
Dew Point 44 °F    
Average Humidity 28    
Maximum Humidity 47    
Minimum Humidity 9    
Precipitation  
Precipitation 0.00 in 0.00 in 0.00 in (2017)
Month to date precipitation 0.00 0.04  
Year to date precipitation 0.79 2.92  
Since 1 July precipitation 2.27  
Snow  
Snow 0.00 in - - ()
Month to date snowfall 0.0  
Year to date snowfall 0.0  
Snow Depth 0.00 in    
Sea Level Pressure  
Sea Level Pressure 29.64 in    
Wind  
Wind Speed 4 mph (SE)    
Max Wind Speed 16 mph    
Max Gust Speed 23 mph    
Visibility 10 miles    
Events      
T = Trace of Precipitation, MM = Missing Value Source: NWS Daily Summary

Daily Weather History Graph

Daily Weather History Graph

Search for Another Location

Airport or City:

Trip Planner

Search our weather history database for the weather conditions in past years. The results will help you decide how hot, cold, wet, or windy it might be!

Date:

Astronomy

Jun. 14, 2012 Rise Set
Actual Time 5:34 AM PDT 7:58 PM PDT
Civil Twilight 5:05 AM PDT 8:27 PM PDT
Nautical Twilight 4:29 AM PDT 9:03 PM PDT
Astronomical Twilight 3:50 AM PDT 9:42 PM PDT
Moon 2:10 AM PDT (6/14) 3:53 PM PDT (6/14)
Length of Visible Light 15h 21m
Length of Day
14h 23m
Waning Crescent, 20% of the Moon is Illuminated
Jun 14
Waning Crescent
Jun 19
New
Jun 26
First Quarter
Jul 3
Full
Jul 10
Last Quarter

Hourly Weather History & Observations

Time (PDT) Temp. Dew Point Humidity Pressure Visibility Wind Dir Wind Speed Gust Speed Precip Events Conditions
12:53 AM 81.0 °F 43.0 °F 26% 29.60 in 10.0 mi Calm Calm - N/A   Clear
1:53 AM 78.1 °F 44.1 °F 30% 29.60 in 10.0 mi SSE 3.5 mph - N/A   Clear
2:53 AM 75.9 °F 46.0 °F 35% 29.60 in 10.0 mi Calm Calm - N/A   Clear
3:53 AM 75.9 °F 46.0 °F 35% 29.61 in 10.0 mi Calm Calm - N/A   Clear
4:53 AM 73.9 °F 48.0 °F 40% 29.62 in 10.0 mi Calm Calm - N/A   Clear
5:53 AM 69.1 °F 48.0 °F 47% 29.63 in 10.0 mi South 3.5 mph - N/A   Clear
6:53 AM 75.0 °F 46.9 °F 37% 29.66 in 10.0 mi SSE 3.5 mph - N/A   Clear
7:53 AM 78.1 °F 46.0 °F 32% 29.67 in 10.0 mi SE 3.5 mph - N/A   Clear
8:53 AM 84.0 °F 44.1 °F 25% 29.69 in 10.0 mi SSE 5.8 mph - N/A   Clear
9:53 AM 86.0 °F 44.1 °F 23% 29.69 in 10.0 mi Calm Calm - N/A   Clear
10:53 AM 91.0 °F 41.0 °F 17% 29.70 in 10.0 mi East 9.2 mph - N/A   Clear
11:53 AM 93.9 °F 44.1 °F 18% 29.70 in 10.0 mi ESE 6.9 mph - N/A   Clear
12:53 PM 95.0 °F 35.1 °F 12% 29.69 in 10.0 mi ESE 6.9 mph - N/A   Clear
1:53 PM 98.1 °F 34.0 °F 11% 29.67 in 10.0 mi Calm Calm - N/A   Clear
2:53 PM 99.0 °F 30.0 °F 9% 29.65 in 10.0 mi Variable 3.5 mph - N/A   Clear
3:53 PM 100.0 °F 32.0 °F 9% 29.63 in 10.0 mi ENE 3.5 mph - N/A   Clear
4:53 PM 100.0 °F 37.9 °F 12% 29.61 in 10.0 mi NNW 11.5 mph 23.0 mph N/A   Clear
5:53 PM 99.0 °F 37.0 °F 12% 29.60 in 10.0 mi NW 11.5 mph 24.2 mph N/A   Clear
6:53 PM 95.0 °F 46.0 °F 19% 29.60 in 10.0 mi NW 19.6 mph 26.5 mph N/A   Clear
7:53 PM 91.0 °F 48.9 °F 23% 29.61 in 10.0 mi NW 16.1 mph 26.5 mph N/A   Clear
8:53 PM 87.1 °F 51.1 °F 29% 29.62 in 10.0 mi NW 19.6 mph 25.3 mph N/A   Clear
9:53 PM 84.0 °F 51.1 °F 32% 29.64 in 10.0 mi NW 17.3 mph - N/A   Clear
10:53 PM 81.0 °F 50.0 °F 34% 29.65 in 10.0 mi WNW 4.6 mph - N/A   Clear
11:53 PM 78.1 °F 52.0 °F 40% 29.65 in 10.0 mi South 4.6 mph - N/A   Clear